User: anonymous   Login
Location: Houston
(29.7630°N, 95.3630°W)
Time: 13:47:05
(UTC-05:00)
Language:

Saudisat 1A - Orbit

View from above orbital plane
View from above orbital plane
View from above satellite
View from above satellite

Ground track
Ground track

The orbit data is extracted from the following two-line orbital elements,

1 26546U 00057B   16121.55402944  .00000365  00000-0  53246-4 0  9997
2 26546  64.5543 186.5339 0048271 275.2908  84.2695 14.90193116845165
Epoch (UTC): 30 April 2016 13:17:48
Eccentricity: 0.0048271
inclination: 64.5543°
perigee height: 563 km
apogee height: 631 km
right ascension of ascending node: 186.5339°
argument of perigee: 275.2908°
revolutions per day: 14.90193116
mean anomaly at epoch: 84.2695°
orbit number at epoch: 84516

The dashed part of the orbit path shows where the satellite is in the earth's shadow,  

DLR